Find Starlink 11088

NORAD ID: 59709 Int'l Des: 2024-088 Owner: SPXS Country: US Constellation: starlink operational
別名: STARLINK-11088 [DTC] celestrak
LEOCIRCULAR

現在のビュー

3D地球を読み込み中...

About Starlink 11088

Starlink 11088 (NORAD 59709) is a starlink constellation satellite (v2 mini d2c) launched May 10, 2024 by SPXS of US. It operates in LEO, CIRCULAR orbit with a mass of 960.00 kg.

次回通過

Passes for default location (London). Set your location on the main map for personalized predictions.

高度履歴

Loading altitude history...

軌道要素

1 59709U 24088B 26262.98032159 .00001142 00000-0 14288-4 0 9992
2 59709 53.1578 88.7986 0001213 65.1777 294.9367 15.69710093136783
Epoch: Sep 19, 2026 • Age: 30 hours

現在のステータス

高度 371.9 km
遠地点 / 近地点 N/A
速度 7.69 km/s
衛星直下点 -35.72°S, 147.92°W
打ち上げ日 May 10, 2024
運用期間 2.3 years
タイプ internet

技術仕様

分類 Payload
質量 960.00 kg
乾燥質量 910.00 kg
長さ 0.30 m
スパン 29.00 m
形状 ? Box + pan
製造者 SPXS
バスタイプ Starlink V2MD
フェーズステータス In Orbit
所有者/国 SPXS/US

Most Searched